Location: Hubenov
(50.0044°N, 13.4795°E)
Time: 06:05:19
(UTC+00:00)

Daily predictions for brighter satellites

Satellite Brightness Start Highest point End
(mag) Time Altitude Azimuth Time Altitude Azimuth Time Altitude Azimuth
Cosmos 773 Rocket 4.3 19:41:52 10° NNW 19:47:08 71° WSW 19:52:22 10° SSE
ASTEX 1 4.2 19:43:06 10° NNE 19:47:29 33° E 19:51:50 10° SSE
Cosmos 2297 Rocket 4.4 19:46:51 10° N 19:50:16 16° NNE 19:53:40 10° ENE
Cosmos 1340 Rocket 3.2 19:53:26 10° NNW 19:57:16 61° W 20:01:02 10° S
Ariane Rocket 3.5 19:53:24 10° SE 19:58:13 47° ENE 20:03:03 10° N
SAR-Lupe-2 4.2 19:55:34 10° SE 19:58:57 41° ENE 20:02:22 10° N
CZ-4C R/B 2.8 19:56:15 10° SSE 19:59:43 24° ESE 20:03:50 10° ENE
CZ-4B R/B 4.0 19:56:24 10° SSW 19:59:47 38° W 20:03:19 10° NNW
ISS -3.3 19:56:38 10° W 19:59:58 64° N 20:03:18 10° E
Okean 2 Rocket 3.2 19:56:35 10° N 20:00:57 63° ENE 20:05:16 10° SSE
Cosmos 2263 4.4 19:57:03 10° S 20:02:28 49° ESE 20:07:52 10° NE
Cosmos 1869 3.0 19:59:51 10° N 20:03:27 89° ENE 20:06:59 10° S
Cosmos 1777 Rocket 4.0 20:02:19 10° SSW 20:07:32 78° ESE 20:12:44 10° NNE
Cosmos 2151 Rocket 3.6 20:03:13 10° N 20:07:46 89° ENE 20:12:15 10° S
BREEZE-M DEB (TANK) 3.3 20:06:40 10° S 20:08:47 21° SE 20:12:32 10° E
SOZ 4.4 20:07:33 10° SW 20:10:07 50° SSE 20:12:21 10° ENE
Cosmos 44 3.8 20:07:41 10° S 20:11:26 30° ESE 20:15:16 10° ENE
Nadezhda 4 Rocket 4.3 20:08:00 10° SSE 20:14:04 52° E 20:20:11 10° NNE
Lacrosse 5 rocket 3.2 20:10:57 10° WNW 20:14:23 29° N 20:17:52 10° ENE
Okean 1 Rocket 3.1 20:10:45 10° N 20:15:08 69° ENE 20:19:24 10° SSE
Helios 1B rocket 3.7 20:13:58 10° SSW 20:17:18 32° W 20:20:39 10° NNW
Helios 1A 2.9 20:13:23 10° NNE 20:17:21 84° WNW 20:21:18 10° SSW
Cosmos 1515 4.4 20:17:06 10° NNE 20:19:09 20° ENE 20:20:37 14° ESE
Cosmos 2221 Rocket 3.7 20:16:34 10° S 20:21:02 66° E 20:25:32 10° NNE
Gbstr 26 Del rocket 3.7 20:19:29 10° W 20:24:19 75° N 20:30:20 10° E
Terra 2.9 20:20:47 10° SSW 20:25:14 41° W 20:29:43 10° NNW
NOSS 3-4 (A) 4.2 20:18:59 10° NW 20:25:39 60° SW 20:33:06 11° SSE
NOSS 3-4 (C) 4.2 20:19:02 10° NW 20:25:42 61° SW 20:33:06 12° SSE
Cosmos 1455 Rocket 3.6 20:22:33 10° N 20:26:42 44° ENE 20:30:04 15° SE
SPOT 3 Rocket 3.6 20:23:33 10° SSE 20:28:44 89° ENE 20:33:59 10° NNW
Spot 2 Rocket 4.1 20:28:05 10° S 20:33:04 55° W 20:38:04 10° NNW
Sich 1 Rocket 3.8 20:28:38 10° NNW 20:33:12 73° W 20:37:43 10° S
IRS-1C Rocket 4.4 20:32:32 10° S 20:37:46 68° WSW 20:43:02 10° NNW
Cosmos 1818 4.0 20:33:03 10° NW 20:38:22 56° WSW 20:42:53 14° SSE
Cosmos 1674 Rocket 4.1 20:35:01 10° SSW 20:39:23 60° WNW 20:43:47 10° N
Cosmos 1898 Rocket 4.4 20:36:10 14° SSE 20:39:43 30° E 20:44:14 10° NE
Cosmos 1833 4.4 20:34:13 10° NNW 20:39:54 71° WSW 20:44:42 14° SSE
Cosmos 1538 Rocket 4.1 20:38:08 10° NNW 20:43:32 75° ENE 20:47:45 17° SSE
Cosmos 2297 4.3 20:44:20 10° SW 20:49:55 61° WNW 20:55:35 10° NNE
PSLV R/B 3.2 20:49:20 19° S 20:51:27 77° WSW 20:54:35 10° NNW
Cosmos 1812 2.3 20:48:24 10° NNW 20:51:35 69° W 20:53:43 18° S
Meteor 1-11 4.4 20:47:34 10° SSW 20:53:24 83° WNW 20:59:13 10° N
Cosmos 1092 Rocket 4.3 20:50:30 15° SSE 20:55:42 54° E 21:01:50 10° NNE
ARIANE 5 R/B 4.3 20:53:15 12° ESE 20:56:15 23° ENE 20:59:46 10° N
Meteor 2-1 Rocket 4.4 20:50:55 10° NNW 20:56:47 75° W 21:01:41 14° S
ATLAS 2AS CENTAUR R/B 4.5 20:51:53 10° NW 20:57:44 28° NNE 21:03:28 10° ENE
Okean O Rocket 4.2 20:56:15 10° SW 20:58:51 15° W 21:01:27 10° NW
BlueWalker 3 2.2 20:55:49 10° WNW 20:59:28 61° NNE 21:03:04 10° E
Cosmos 1025 Rocket 3.6 20:55:38 10° SSW 20:59:54 58° WNW 21:04:14 10° N
Cosmos 990 Rocket 4.1 20:54:57 10° SSW 21:00:07 81° WNW 21:05:23 10° NNE
Aureole 1 Rocket 4.3 21:03:32 10° S 21:10:02 67° ESE 21:17:28 10° NNE
RESURS DK-1 3.2 21:10:57 10° NNW 21:14:44 40° NE 21:17:10 19° ESE
Cosmos 1544 Rocket 4.1 21:12:59 10° N 21:17:12 46° ENE 21:19:31 24° SE
Cosmos 372 Rocket 3.9 21:14:58 15° S 21:19:11 67° ESE 21:24:14 10° NNE
USA 215 3.8 21:13:59 10° E 21:20:22 58° NNE 21:26:46 10° WNW
DNEPR-1 R/B 3.5 21:18:02 10° NW 21:22:15 70° SW 21:24:32 27° SSE
Cosmos 2369 Rocket 3.7 21:20:07 10° WSW 21:25:25 38° NW 21:30:44 10° NNE
Cosmos 1400 Rocket 3.4 21:23:06 10° N 21:26:44 40° ENE 21:28:20 26° ESE
Cosmos 2058 4.5 21:25:46 17° ESE 21:26:47 19° E 21:29:37 10° NE
Cosmos 2112 Rocket 4.5 21:23:37 10° NNW 21:28:48 53° ENE 21:32:07 22° SE
Meteor 1-27 4.3 21:24:13 10° NNW 21:30:01 84° W 21:33:45 23° S
Cosmos 1782 4.2 21:30:39 10° NNE 21:33:43 24° ENE 21:35:07 19° ESE
Cosmos 2297 Rocket 2.7 21:30:05 10° NNW 21:35:39 54° NE 21:39:27 20° SE
COBE Rocket 4.4 21:31:41 10° N 21:36:13 53° WNW 21:40:35 10° SSW
ISS -3.8 21:33:24 10° WNW 21:36:43 63° SSW 21:37:42 40° SE
Cosmos 1937 Rocket 3.5 21:34:18 22° S 21:37:35 64° ESE 21:42:39 10° NNE
DELTA 2 R/B (1) 4.4 21:33:08 10° SW 21:37:45 28° S 21:38:43 26° SSE
Cosmos 2098 Rocket 2.5 21:36:07 10° NNW 21:39:20 72° W 21:40:46 33° S
Cosmos 1680 Rocket 3.6 21:34:13 10° NNW 21:39:31 74° ENE 21:42:31 26° SE
ALOS 2 3.5 21:44:36 23° ESE 21:46:47 38° ENE 21:50:52 10° N
CZ-4C R/B 2.5 21:42:53 10° WSW 21:47:21 60° NW 21:53:05 10° NE
Helios 1B 4.4 21:46:03 10° NNE 21:50:20 76° ESE 21:52:23 30° S
Cosmos 923 Rocket 4.1 21:45:39 10° NNW 21:50:50 70° WSW 21:53:32 28° S
Cosmos 1697 Rocket 4.0 21:50:21 20° SE 21:51:54 23° ESE 21:56:14 10° NE
Cosmos 44 4.2 21:48:12 10° WSW 21:52:21 44° NW 21:56:40 10° NNE
Lacrosse 5 rocket 2.6 21:48:50 10° NW 21:52:30 37° NNE 21:56:11 10° E
Cosmos 1975 Rocket 3.8 21:53:28 16° SW 21:56:38 47° WNW 22:00:49 10° N
MetOp-A 3.2 21:55:24 38° SSE 21:56:45 73° ENE 22:00:33 10° N
Cosmos 2228 3.6 21:57:07 10° NNW 22:01:10 47° W 22:03:10 26° SSW
Cosmos 2227 Rocket 3.0 22:02:53 10° NNW 22:08:23 47° NE 22:12:21 18° ESE
GEOS 3 Rocket 4.5 22:04:56 10° ENE 22:09:35 31° ESE 22:10:46 28° SE
Cosmos 1867 3.8 22:04:23 10° SW 22:09:50 73° NW 22:15:20 10° NE
Gbstr 26 Del rocket 3.7 22:05:42 10° WNW 22:11:00 66° SSW 22:15:20 21° SE
BREEZE M DEB (TANK) 4.0 22:08:50 10° WSW 22:10:08 20° WSW 22:10:08 20° WSW
Cosmos 494 Rocket 4.0 22:06:54 10° NNW 22:12:10 82° ENE 22:14:39 32° SSE
BREEZE-M DEB (TANK) 2.6 22:10:50 10° W 22:17:48 86° S 22:19:47 19° E
Cosmos 1048 Rocket 4.4 22:15:52 10° NNW 22:21:12 61° ENE 22:24:05 27° SE
CZ-2C R/B 3.8 22:16:31 10° NNE 22:21:15 78° WNW 22:23:40 29° SSW
Cosmos 1898 Rocket 4.4 22:16:30 10° SW 22:21:30 47° WNW 22:26:35 10° NNE
Cosmos 2266 Rocket 4.1 22:19:21 29° S 22:22:52 74° E 22:29:16 10° NNE
Spot 4 3.8 22:21:20 35° S 22:23:24 80° WSW 22:28:14 10° NNW
ATLAS 5 CENTAUR R/B 4.3 22:21:27 10° NNW 22:23:59 16° NNE 22:26:49 10° ENE
Landsat 5 3.1 22:25:07 10° NNE 22:28:55 75° ESE 22:29:50 49° S
ARIANE 5 R/B 3.2 22:30:39 32° SSW 22:32:19 48° W 22:36:38 10° NNW
Cosmos 2315 Rocket 4.1 22:26:30 10° N 22:32:55 74° E 22:36:19 30° SSE
BlueWalker 3 2.2 22:33:36 10° WNW 22:36:56 44° SW 22:36:56 44° SW
Cosmos 1315 Rocket 3.7 22:33:58 10° N 22:37:35 38° ENE 22:38:48 29° ESE
CZ-4C R/B 4.5 22:41:31 10° N 22:44:50 34° WNW 22:46:38 22° WSW
Cosmos 1933 3.3 22:42:54 10° N 22:46:48 70° E 22:47:44 48° SE
ATLAS 2AS CENTAUR R/B 3.1 22:43:15 10° NW 22:50:00 59° NE 22:56:37 10° ESE
Cosmos 1536 Rocket 4.2 22:48:20 28° SW 22:50:19 49° WNW 22:54:37 10° N
Cosmos 1656 4.1 22:47:10 16° SW 22:51:35 58° WNW 22:57:03 10° NNE
RESURS DK-1 3.7 22:48:46 10° NW 22:52:01 24° WSW 22:52:29 24° WSW
S3M 4.2 22:46:59 10° NNW 22:53:13 64° W 22:56:23 30° SSW
USA 290 4.2 22:52:29 10° N 22:55:16 24° NE 22:56:40 18° E
Cosmos 2263 Rocket 2.7 22:50:21 10° NNW 22:55:55 55° NE 22:59:46 20° SE
Cosmos 1606 Rocket 3.9 22:53:13 10° NNW 22:57:29 55° W 22:58:50 38° SSW
Cosmos 2058 3.7 23:01:15 29° WSW 23:02:42 41° WNW 23:06:28 10° N
USA 215 3.2 22:58:08 17° SE 23:03:18 74° SW 23:09:52 10° WNW
Cosmos 1602 3.3 23:07:46 61° WSW 23:08:03 66° WNW 23:11:15 10° N
Cosmos 1782 3.9 23:05:34 10° NNW 23:08:44 28° W 23:09:26 26° WSW
Cosmos 1655 Rocket 4.0 23:09:38 31° SSW 23:12:58 85° W 23:19:24 10° N
Dummy Sat-01 4.5 23:18:25 58° S 23:19:05 83° E 23:22:47 10° N
Cosmos 1862 3.7 23:18:17 37° WSW 23:19:11 46° WNW 23:22:43 10° N
Cosmos 2297 Rocket 3.3 23:14:33 10° NW 23:19:24 30° WSW 23:21:13 25° SW
SL-16 R/B 4.4 23:17:59 10° ESE 23:20:01 12° E 23:22:02 10° ENE
Cosmos 1726 Rocket 4.3 23:16:17 10° NNW 23:20:41 45° W 23:22:11 33° SW
Cosmos 2219 3.4 23:15:21 10° NNW 23:21:02 68° ENE 23:24:45 22° SE
PSLV R/B 4.2 23:17:51 10° N 23:22:26 55° WNW 23:24:32 30° SW
Cosmos 2058 Rocket 3.0 23:18:06 10° NNW 23:22:34 81° W 23:23:59 43° S
ALOS 2 3.9 23:22:00 24° WSW 23:23:13 27° W 23:26:59 10° NW
Lacrosse 5 rocket 1.0 23:26:12 10° WNW 23:30:08 71° SW 23:31:06 48° SSE
Cosmos 1980 Rocket 2.4 23:28:23 34° S 23:30:37 58° ESE 23:36:08 10° NE
Orbus 7S? 4.4 23:29:20 37° S 23:30:52 51° SE 23:39:32 10° ENE
Cosmos 1356 Rocket 4.0 23:30:37 10° NNW 23:34:26 41° W 23:35:17 36° SW
Cosmos 1697 Rocket 2.9 23:32:02 26° SW 23:35:20 69° WNW 23:41:01 10° NNE
CZ-4C R/B 4.5 23:32:33 10° WNW 23:36:52 26° NNW 23:42:10 10° NE
CZ-2C R/B 3.0 23:36:52 25° SSE 23:40:11 67° ENE 23:45:46 10° N
Cosmos 1892 Rocket 4.2 23:39:40 30° SW 23:41:15 44° WNW 23:45:24 10° N
PSLV R/B 4.2 23:38:34 10° N 23:42:29 57° WNW 23:43:44 38° SW
Cosmos 1441 Rocket 3.8 23:44:49 35° WSW 23:45:33 41° WNW 23:48:51 10° N
Cosmos 1602 Rocket 4.3 23:45:39 29° SE 23:47:14 42° E 23:51:21 10° NNE
GEOS 3 Rocket 3.9 23:42:37 10° NE 23:47:50 66° NW 23:51:46 18° WSW
IDEFIX/ARIANE 42P 4.3 23:44:14 10° NE 23:48:12 22° E 23:51:12 14° SE
Cosmos 1758 Rocket 3.7 23:47:54 38° SSE 23:49:26 64° E 23:53:51 10° NNE
Meteor 2-3 Rocket 4.1 23:46:45 28° SW 23:49:44 61° WNW 23:55:28 10° N
Cosmos 1626 Rocket 3.5 23:49:13 41° S 23:50:42 81° E 23:55:07 10° NNE
Cosmos 1844 Rocket 4.1 23:46:03 10° NNW 23:51:15 36° NE 23:56:24 10° ESE
CENTAUR R/B 4.1 23:49:44 13° SE 23:52:14 17° ESE 23:56:15 10° ENE
Cosmos 2227 Rocket 3.0 23:47:11 10° NW 23:52:18 35° WSW 23:54:06 29° SW
